Time,TemperatureF,DewpointF,PressureIn,WindDirection,WindDirectionDegrees,WindSpeedMPH,WindSpeedGustMPH,Humidity,HourlyPrecipIn,Conditions,Clouds,dailyrainin,SolarRadiationWatts/m^2,SoftwareType,DateUTC
2014-11-27 00:22:00,38.0,25.0,-100.00,North,-999,0.0,5.0,60,0.00,,,0.00,0.000000,,2014-11-27 07:22:00,
2014-11-27 00:32:00,38.0,25.0,-100.00,North,-999,0.0,5.0,60,0.00,,,0.00,0.000000,,2014-11-27 07:32:00,
2014-11-27 00:42:00,38.0,25.0,-100.00,North,-999,0.0,5.0,60,0.00,,,0.00,0.000000,,2014-11-27 07:42:00,
2014-11-27 00:51:00,36.0,24.0,-100.00,SSE,158,1.0,4.0,62,0.00,,,-99.99,0.000000,,2014-11-27 07:51:00,
2014-11-27 01:22:00,36.0,24.0,-100.00,SSE,158,1.0,4.0,62,0.00,,,-99.99,0.000000,,2014-11-27 08:22:00,
2014-11-27 01:32:00,36.0,24.0,-100.00,SSE,158,1.0,4.0,62,0.00,,,-99.99,0.000000,,2014-11-27 08:32:00,
2014-11-27 01:42:00,36.0,24.0,-100.00,SSE,158,1.0,4.0,62,0.00,,,-99.99,0.000000,,2014-11-27 08:42:00,
2014-11-27 01:51:00,35.0,25.0,-100.00,WSW,258,3.0,5.0,66,0.00,,,0.00,0.000000,,2014-11-27 08:51:00,
2014-11-27 02:22:00,35.0,25.0,-100.00,WSW,258,3.0,5.0,66,0.00,,,0.00,0.000000,,2014-11-27 09:22:00,
2014-11-27 02:33:00,35.0,25.0,-100.00,WSW,258,3.0,5.0,66,0.00,,,0.00,0.000000,,2014-11-27 09:33:00,
2014-11-27 02:44:00,35.0,25.0,-100.00,WSW,258,3.0,5.0,66,0.00,,,0.00,0.000000,,2014-11-27 09:44:00,
2014-11-27 02:51:00,34.0,24.0,-100.00,East,89,2.0,6.0,67,0.00,,,0.00,0.000000,,2014-11-27 09:51:00,
2014-11-27 03:23:00,34.0,24.0,-100.00,East,89,2.0,6.0,67,0.00,,,0.00,0.000000,,2014-11-27 10:23:00,
2014-11-27 03:33:00,34.0,24.0,-100.00,East,89,2.0,6.0,67,0.00,,,0.00,0.000000,,2014-11-27 10:33:00,
2014-11-27 03:43:00,34.0,24.0,-100.00,East,89,2.0,6.0,67,0.00,,,0.00,0.000000,,2014-11-27 10:43:00,
2014-11-27 03:51:00,34.0,26.0,-100.00,NE,51,1.0,4.0,71,0.00,,,0.00,0.000000,,2014-11-27 10:51:00,
2014-11-27 04:22:00,34.0,26.0,-100.00,NE,51,1.0,4.0,71,0.00,,,0.00,0.000000,,2014-11-27 11:22:00,
2014-11-27 04:33:00,34.0,26.0,-100.00,NE,51,1.0,4.0,71,0.00,,,0.00,0.000000,,2014-11-27 11:33:00,
2014-11-27 04:43:00,34.0,26.0,-100.00,NE,51,1.0,4.0,71,0.00,,,0.00,0.000000,,2014-11-27 11:43:00,
2014-11-27 05:22:00,33.0,26.0,-100.00,West,276,1.0,4.0,76,0.00,,,0.00,0.000000,,2014-11-27 12:22:00,
2014-11-27 05:32:00,33.0,26.0,-100.00,West,276,1.0,4.0,76,0.00,,,0.00,0.000000,,2014-11-27 12:32:00,
2014-11-27 07:51:00,33.0,23.0,-100.00,SW,222,1.0,3.0,66,0.00,,,0.00,4.000000,,2014-11-27 14:51:00,
2014-11-27 08:22:00,33.0,23.0,-100.00,SW,222,1.0,3.0,66,0.00,,,0.00,4.000000,,2014-11-27 15:22:00,
2014-11-27 08:34:00,33.0,23.0,-100.00,SW,222,1.0,3.0,66,0.00,,,0.00,4.000000,,2014-11-27 15:34:00,
2014-11-27 08:44:00,33.0,23.0,-100.00,SW,222,1.0,3.0,66,0.00,,,0.00,4.000000,,2014-11-27 15:44:00,
2014-11-27 08:51:00,40.0,26.0,-100.00,SE,134,2.0,4.0,57,0.00,,,0.00,128.000000,,2014-11-27 15:51:00,
2014-11-27 09:23:00,40.0,26.0,-100.00,SE,134,2.0,4.0,57,0.00,,,0.00,128.000000,,2014-11-27 16:23:00,
2014-11-27 09:33:00,40.0,26.0,-100.00,SE,134,2.0,4.0,57,0.00,,,0.00,128.000000,,2014-11-27 16:33:00,
2014-11-27 09:43:00,40.0,26.0,-100.00,SE,134,2.0,4.0,57,0.00,,,0.00,128.000000,,2014-11-27 16:43:00,
2014-11-27 09:51:00,39.0,30.0,-100.00,NNW,327,1.0,3.0,69,0.00,,,0.00,172.000000,,2014-11-27 16:51:00,
2014-11-27 10:22:00,39.0,30.0,-100.00,NNW,327,1.0,3.0,69,0.00,,,0.00,172.000000,,2014-11-27 17:22:00,
2014-11-27 10:32:00,39.0,30.0,-100.00,NNW,327,1.0,3.0,69,0.00,,,0.00,172.000000,,2014-11-27 17:32:00,
2014-11-27 10:43:00,39.0,30.0,-100.00,NNW,327,1.0,3.0,69,0.00,,,0.00,172.000000,,2014-11-27 17:43:00,
2014-11-27 10:51:00,47.0,30.0,-100.00,NNE,25,1.0,4.0,51,0.00,,,0.00,358.000000,,2014-11-27 17:51:00,
2014-11-27 11:22:00,47.0,30.0,-100.00,NNE,25,1.0,4.0,51,0.00,,,0.00,358.000000,,2014-11-27 18:22:00,
2014-11-27 11:33:00,47.0,30.0,-100.00,NNE,25,1.0,4.0,51,0.00,,,0.00,358.000000,,2014-11-27 18:33:00,
2014-11-27 11:44:00,47.0,30.0,-100.00,NNE,25,1.0,4.0,51,0.00,,,0.00,358.000000,,2014-11-27 18:44:00,
2014-11-27 12:22:00,48.0,22.0,-100.00,East,81,1.0,4.0,36,0.00,,,0.00,357.000000,,2014-11-27 19:22:00,
2014-11-27 12:32:00,48.0,22.0,-100.00,East,81,1.0,4.0,36,0.00,,,0.00,357.000000,,2014-11-27 19:32:00,
2014-11-27 12:42:00,48.0,22.0,-100.00,East,81,1.0,4.0,36,0.00,,,0.00,357.000000,,2014-11-27 19:42:00,